Wind_Speed
28 29 29 29 28 27 25 24 23 21 20 18 17 16 15 15 14 14 13 12 12 13 11 9 8 8 9 10 10 11 11 11 12 13 13 13 14 15 15 16 16 16 17 18
28 29 30 30 29 28 26 25 23 22 20 18 18 17 16 16 16 14 14 14 14 13 11 9 9 10 10 11 11 11 12 12 13 13 13 14 14 15 16 17 17 18 18 19
28 29 30 30 29 28 27 25 23 22 20 18 18 17 16 16 15 15 15 15 14 12 12 11 11 11 12 12 13 13 13 14 14 14 14 15 15 15 16 17 18 18 19 19
28 29 31 28 28 29 28 26 24 23 21 20 18 18 17 17 16 16 15 16 14 13 12 12 13 14 14 14 15 15 15 16 16 16 16 16 16 16 17 18 18 18 18 18
30 30 30 29 28 28 28 28 27 25 23 21 20 19 19 18 18 18 17 17 16 15 15 15 15 15 15 15 16 16 16 16 17 18 18 17 17 17 17 17 17 17 17 17
34 33 33 29 28 28 27 28 27 26 25 24 22 22 20 19 19 19 19 18 18 17 16 16 16 16 16 16 16 17 17 17 18 18 18 18 18 18 19 19 18 17 17 17
37 36 35 32 31 29 29 28 27 26 26 26 25 24 23 22 21 20 20 20 19 17 16 16 16 16 17 17 17 18 18 18 19 19 19 18 18 18 19 19 19 18 18 18
40 39 37 34 32 30 29 28 28 28 27 26 26 25 24 23 22 21 21 21 20 19 18 18 18 18 18 18 18 19 19 19 19 19 19 19 19 19 19 19 19 19 19 19
42 41 38 36 33 32 30 29 28 28 27 26 26 25 25 24 24 23 22 22 22 22 20 19 18 19 18 19 19 20 20 20 20 20 20 20 20 20 20 20 20 20 20 20
43 42 40 38 35 33 31 30 29 28 28 27 26 26 25 25 24 24 23 23 21 20 19 18 19 19 20 20 20 21 21 21 21 21 21 21 20 20 21 21 21 21 21 21
43 42 40 38 36 35 33 30 28 28 29 29 28 27 26 25 25 25 23 23 21 20 19 20 20 20 20 20 21 21 21 21 21 22 21 21 21 21 21 22 22 22 21 21
42 41 40 38 36 35 33 31 29 28 29 28 28 28 27 26 25 24 23 22 21 20 19 20 20 20 21 21 22 22 21 21 21 21 21 20 20 21 21 21 21 21 21 21
41 41 40 38 36 34 32 30 29 28 27 27 27 28 28 27 25 24 23 22 20 19 20 20 20 21 21 21 21 21 21 21 21 21 20 20 20 21 21 21 21 21 21 21
40 40 39 38 36 34 31 30 29 29 28 27 27 26 26 25 24 23 21 20 19 19 20 20 20 21 21 21 21 21 21 20 20 20 20 20 21 21 20 20 20 20 20 21
37 37 35 34 33 31 30 30 29 28 27 27 26 26 25 24 22 21 20 21 21 21 21 21 21 21 21 21 21 20 20 20 20 20 20 20 20 20 20 20 20 21 21 22
34 34 33 32 31 30 29 29 29 29 28 28 27 25 24 23 22 21 21 21 21 21 21 22 22 22 21 21 20 20 20 20 20 19 20 20 20 20 20 21 21 22 22 22
31 31 30 30 29 28 28 28 28 28 28 26 24 24 23 22 22 22 21 21 21 21 21 21 21 21 20 19 19 19 19 19 19 20 20 20 20 20 20 21 21 22 22 23
28 28 28 27 26 27 27 27 28 28 27 25 24 23 23 22 22 22 22 22 21 21 21 21 20 20 19 19 19 19 19 19 20 19 19 19 19 20 20 20 21 21 23 24
26 27 26 25 24 24 26 25 25 26 27 27 26 24 23 23 22 22 21 21 21 20 20 20 19 19 19 19 19 19 19 19 19 19 19 19 20 20 21 21 22 22 23 24
23 25 25 23 23 23 24 24 23 23 25 25 24 23 22 21 21 20 20 20 19 19 19 19 18 19 19 19 18 18 19 19 19 19 19 19 20 21 21 22 22 23 23 24
21 22 23 23 23 22 22 21 21 22 23 23 22 22 21 20 20 20 19 18 18 18 18 18 18 18 18 18 18 18 18 18 19 19 19 20 20 21 21 22 23 23 23 24
21 21 21 21 20 20 20 20 20 21 22 21 21 20 20 19 19 18 18 18 18 18 18 18 18 18 18 18 18 18 18 18 18 19 20 20 20 21 21 22 22 23 23 23
19 19 19 19 18 18 18 19 19 19 19 19 19 19 19 18 18 18 18 18 18 17 17 17 17 17 17 17 17 17 17 17 18 19 20 20 20 21 21 22 22 23 24 25
18 18 18 18 17 17 17 17 17 18 18 18 18 18 18 18 17 18 18 17 17 16 16 16 16 16 16 16 17 17 17 18 18 19 20 20 21 21 22 22 23 24 25 26
18 17 17 17 16 16 16 16 16 16 17 17 17 17 16 17 17 17 17 16 15 15 15 15 16 16 16 17 17 16 17 18 19 20 20 20 21 21 22 23 24 25 26 27
17 16 16 16 15 16 16 16 16 16 16 15 15 15 15 15 15 15 14 14 14 14 15 15 15 15 15 15 15 16 17 19 19 20 20 21 21 22 23 25 25 26 27 27
16 16 15 15 14 14 14 14 14 14 14 14 14 14 14 14 14 14 13 13 13 13 13 14 14 14 14 15 16 17 18 19 19 20 21 22 23 24 25 26 27 27 27 27
Wind_Direction
224 225 229 232 234 238 243 248 252 256 258 257 257 264 269 276 282 288 299 305 311 315 314 308 309 308 306 305 306 306 297 298 302 299 295 294 290 287 286 286 285 282 280 278
224 225 228 230 232 235 240 245 250 255 259 260 260 262 268 275 277 282 291 297 302 306 306 305 305 301 302 305 305 307 305 303 304 303 301 298 293 291 290 288 286 283 280 280
228 226 228 230 232 236 241 246 250 255 259 260 263 265 269 272 273 278 285 292 292 294 295 297 301 300 299 302 304 305 305 303 302 302 301 300 297 294 292 290 288 284 281 281
231 228 231 233 234 239 243 247 251 255 259 262 265 266 267 272 276 278 283 291 289 290 291 292 296 299 299 299 300 300 300 300 299 298 296 297 297 295 294 294 290 287 284 281
233 232 235 235 236 241 245 247 251 255 258 261 263 266 269 275 277 277 282 287 286 286 287 286 289 291 292 294 297 299 300 298 297 296 294 294 294 293 294 294 292 290 286 283
235 236 237 238 240 243 247 249 251 255 257 260 262 265 270 274 276 276 279 280 282 283 284 286 286 286 288 291 294 295 296 297 297 297 296 293 292 293 291 291 289 288 287 286
237 240 241 242 245 249 251 252 253 255 257 259 261 263 266 269 272 272 275 278 277 277 279 284 286 287 288 289 292 293 293 295 295 295 296 294 293 294 293 291 289 286 286 285
239 242 245 246 249 251 254 254 253 254 256 259 260 260 262 265 268 270 275 279 275 275 278 281 284 286 287 288 291 292 292 293 293 293 294 294 293 293 293 292 290 285 285 285
239 242 247 249 250 252 253 254 254 254 255 257 260 259 259 261 263 266 271 276 274 272 273 276 279 283 286 287 290 292 293 293 292 292 292 292 292 291 290 291 291 289 286 283
240 243 246 249 251 253 255 255 254 255 255 256 257 256 257 258 260 264 268 272 273 268 268 273 278 281 285 287 288 290 292 292 291 291 291 291 291 291 290 289 290 289 287 286
240 243 245 247 250 252 253 254 254 254 253 253 255 255 255 257 261 263 265 268 269 271 271 274 277 279 283 285 287 289 291 291 290 291 289 288 287 289 290 289 288 288 288 287
240 241 244 246 248 250 250 250 250 251 251 251 253 254 253 256 258 258 261 266 268 270 270 273 275 277 280 283 285 288 290 290 290 290 286 284 286 289 290 290 289 289 288 287
240 241 243 245 245 247 246 246 247 247 249 249 251 253 253 255 255 257 261 264 264 267 270 273 274 277 279 282 285 288 288 289 287 286 284 285 288 290 290 290 290 290 291 291
240 240 241 242 243 243 243 244 245 246 247 247 248 249 250 252 254 256 258 258 261 266 271 273 275 278 280 282 284 286 286 286 284 285 286 288 289 291 291 291 291 292 292 293
239 239 238 239 240 239 239 240 242 244 245 244 244 245 246 248 249 248 251 255 259 264 268 272 274 277 280 280 281 282 283 284 284 285 287 288 289 290 291 293 293 293 295 296
236 237 236 237 238 236 236 238 239 238 240 241 239 242 243 244 246 247 251 255 259 263 267 271 273 275 276 276 277 279 282 283 284 285 287 288 290 291 292 293 295 296 297 298
231 232 232 233 234 233 234 234 232 230 234 237 239 240 239 240 244 248 251 256 261 265 268 270 272 273 273 273 275 277 280 282 282 284 287 289 291 293 294 296 297 298 298 299
225 225 227 228 230 231 232 230 226 225 228 234 235 236 237 239 243 246 250 255 260 263 266 267 268 269 271 272 274 276 278 281 282 283 286 289 292 295 298 299 300 301 302 303
220 220 224 225 226 227 225 225 225 227 230 232 234 235 235 237 242 245 250 254 259 263 264 265 266 267 269 270 271 273 275 279 283 285 288 290 292 295 297 299 301 302 303 304
216 217 219 220 221 222 223 226 228 230 229 228 229 231 233 236 240 245 250 254 258 260 262 264 266 267 267 269 271 274 277 280 283 286 289 291 293 296 298 301 302 304 305 306
212 212 212 213 217 220 222 224 226 227 226 227 228 228 230 235 241 246 248 252 255 258 260 262 262 265 268 271 273 275 277 279 283 286 290 293 295 297 300 302 304 305 307 308
205 205 208 211 213 216 217 219 221 223 223 224 226 229 232 237 241 244 247 250 255 258 259 260 262 265 268 271 274 275 277 280 284 289 292 295 298 300 301 302 304 307 309 310
202 202 203 208 211 209 212 215 217 218 218 221 226 230 233 235 239 242 245 249 254 257 258 259 261 264 268 272 274 277 280 283 287 291 294 296 299 301 302 303 306 308 310 311
200 200 201 204 206 209 212 213 215 217 219 222 226 229 231 233 237 241 244 248 252 255 256 259 263 266 270 274 277 279 282 285 289 292 295 298 300 302 303 305 308 310 311 312
198 200 202 204 206 208 211 214 216 218 220 222 224 227 229 234 238 242 245 247 251 254 259 264 268 271 274 275 278 281 284 288 291 294 297 300 302 303 305 307 309 310 311 312
199 201 202 204 207 208 210 213 215 217 219 220 223 225 229 233 235 238 242 247 252 257 261 265 270 273 274 276 281 286 289 292 295 297 298 301 303 305 307 308 309 310 311 312
196 198 201 203 203 204 206 209 213 216 218 221 223 224 228 232 234 237 242 249 254 258 262 266 269 274 278 283 287 290 292 295 297 298 300 302 304 305 306 307 308 309 310 311
Height
5835 5838 5842 5845 5849 5852 5854 5857 5859 5862 5864 5866 5868 5869 5869 5870 5870 5870 5869 5869 5868 5866 5865 5864 5863 5863 5862 5861 5861 5860 5859 5858 5857 5855 5854 5853 5852 5852 5851 5850 5849 5849 5848 5847
5829 5833 5836 5840 5843 5847 5850 5852 5855 5857 5860 5862 5863 5864 5865 5866 5866 5867 5866 5866 5865 5864 5863 5862 5862 5861 5860 5860 5859 5857 5856 5855 5854 5853 5851 5850 5849 5848 5847 5846 5845 5844 5843 5842
5823 5828 5831 5834 5839 5842 5845 5847 5850 5853 5856 5857 5859 5860 5861 5862 5862 5863 5863 5862 5862 5861 5860 5860 5859 5858 5858 5857 5856 5855 5854 5852 5851 5849 5848 5847 5845 5844 5843 5842 5840 5839 5838 5837
5818 5822 5825 5832 5834 5837 5840 5843 5845 5848 5850 5852 5854 5856 5857 5858 5858 5858 5859 5858 5858 5857 5857 5857 5856 5855 5854 5853 5852 5851 5850 5848 5847 5846 5844 5843 5841 5840 5839 5837 5835 5834 5833 5832
5812 5815 5819 5825 5828 5832 5835 5837 5840 5843 5845 5847 5849 5850 5852 5853 5854 5854 5854 5854 5854 5853 5853 5853 5852 5851 5850 5850 5848 5847 5846 5844 5843 5842 5840 5839 5837 5836 5834 5832 5831 5830 5828 5828
5805 5809 5813 5820 5823 5826 5830 5832 5835 5837 5839 5841 5843 5845 5848 5848 5849 5849 5849 5849 5849 5849 5849 5848 5848 5847 5846 5845 5844 5843 5842 5840 5839 5837 5836 5834 5833 5831 5829 5828 5827 5825 5824 5823
5798 5802 5807 5812 5816 5820 5824 5827 5829 5831 5833 5835 5838 5840 5842 5843 5844 5844 5844 5844 5844 5844 5844 5844 5843 5842 5842 5841 5840 5839 5837 5836 5834 5833 5831 5829 5828 5826 5825 5823 5822 5820 5820 5819
5791 5795 5802 5805 5809 5813 5816 5819 5822 5825 5827 5829 5831 5833 5835 5836 5837 5838 5838 5839 5839 5839 5838 5838 5838 5838 5837 5836 5835 5834 5833 5831 5829 5828 5826 5824 5823 5822 5821 5819 5817 5816 5815 5813
5784 5790 5794 5798 5802 5805 5808 5812 5814 5817 5820 5822 5824 5826 5828 5829 5831 5832 5833 5833 5833 5833 5833 5833 5833 5833 5832 5831 5830 5828 5827 5826 5824 5822 5821 5819 5818 5817 5816 5814 5813 5811 5809 5808
5776 5781 5786 5790 5794 5798 5801 5804 5807 5810 5813 5815 5817 5819 5821 5823 5824 5826 5826 5827 5827 5827 5827 5827 5827 5827 5826 5825 5824 5823 5822 5820 5818 5817 5815 5814 5812 5811 5810 5809 5807 5806 5804 5803
5768 5773 5778 5782 5786 5790 5793 5797 5800 5803 5805 5807 5810 5812 5814 5816 5818 5819 5820 5821 5821 5821 5821 5822 5821 5821 5820 5819 5818 5817 5816 5814 5813 5811 5810 5808 5807 5806 5804 5803 5801 5800 5799 5797
5760 5765 5770 5774 5778 5782 5785 5789 5792 5795 5797 5800 5802 5805 5807 5809 5811 5812 5813 5814 5815 5815 5815 5815 5815 5815 5815 5814 5812 5811 5810 5809 5807 5806 5804 5803 5801 5800 5798 5797 5795 5794 5792 5791
5751 5756 5761 5765 5770 5774 5778 5782 5785 5787 5790 5793 5795 5798 5800 5802 5803 5805 5806 5807 5808 5808 5809 5809 5809 5809 5809 5807 5806 5805 5804 5803 5802 5800 5799 5797 5796 5794 5793 5791 5789 5788 5786 5785
5743 5747 5752 5757 5762 5766 5770 5774 5777 5780 5783 5786 5788 5791 5793 5795 5797 5798 5800 5801 5802 5802 5803 5803 5803 5803 5802 5801 5800 5799 5798 5797 5796 5795 5793 5792 5790 5789 5787 5786 5784 5782 5781 5779
5735 5739 5744 5749 5754 5758 5762 5766 5770 5773 5775 5778 5781 5784 5787 5789 5790 5792 5793 5795 5796 5797 5797 5797 5797 5797 5796 5795 5794 5794 5793 5792 5791 5789 5788 5786 5785 5783 5782 5780 5778 5777 5775 5773
5727 5732 5737 5742 5746 5751 5755 5759 5762 5765 5768 5771 5774 5777 5780 5782 5785 5786 5788 5789 5790 5791 5791 5791 5790 5790 5789 5789 5788 5788 5787 5786 5785 5784 5783 5781 5779 5778 5776 5775 5773 5770 5769 5767
5720 5725 5730 5735 5739 5744 5748 5751 5755 5758 5762 5765 5768 5771 5773 5776 5778 5780 5782 5783 5784 5784 5784 5784 5784 5783 5783 5783 5782 5782 5781 5780 5779 5778 5777 5776 5774 5772 5771 5769 5767 5765 5763 5761
5714 5719 5724 5729 5733 5737 5741 5744 5748 5752 5756 5759 5762 5764 5767 5770 5772 5774 5775 5777 5778 5778 5778 5778 5778 5777 5777 5777 5777 5776 5775 5775 5774 5773 5772 5770 5769 5767 5765 5763 5761 5759 5757 5755
5710 5714 5719 5724 5727 5731 5735 5739 5742 5746 5750 5753 5756 5758 5761 5763 5766 5768 5769 5770 5771 5772 5772 5772 5772 5771 5771 5771 5771 5771 5770 5769 5769 5768 5766 5765 5764 5762 5760 5758 5756 5753 5751 5748
5705 5710 5714 5719 5723 5726 5730 5734 5737 5740 5744 5747 5750 5753 5755 5757 5759 5761 5763 5764 5765 5765 5766 5766 5766 5766 5766 5766 5766 5765 5765 5764 5763 5762 5761 5760 5758 5756 5754 5752 5750 5747 5745 5742
5701 5705 5710 5714 5718 5722 5725 5729 5732 5735 5739 5741 5744 5747 5750 5752 5754 5756 5757 5758 5759 5760 5760 5761 5761 5761 5761 5761 5760 5760 5759 5759 5758 5757 5756 5754 5752 5750 5748 5746 5744 5741 5739 5736
5697 5702 5706 5710 5714 5717 5721 5724 5727 5731 5734 5736 5739 5742 5745 5747 5748 5750 5751 5753 5753 5754 5754 5755 5755 5756 5756 5755 5755 5755 5754 5754 5753 5751 5750 5748 5746 5744 5742 5740 5738 5735 5732 5730
5695 5699 5703 5706 5710 5714 5717 5720 5723 5726 5729 5732 5735 5737 5740 5742 5743 5745 5747 5748 5748 5749 5749 5750 5750 5750 5750 5750 5750 5749 5749 5748 5747 5746 5744 5743 5741 5739 5736 5734 5732 5729 5726 5724
5693 5697 5700 5704 5707 5710 5714 5717 5720 5722 5725 5728 5731 5733 5735 5737 5739 5740 5742 5743 5743 5744 5744 5745 5745 5745 5745 5745 5745 5744 5743 5742 5741 5740 5738 5737 5735 5733 5730 5728 5725 5723 5720 5717
5691 5695 5698 5701 5705 5708 5711 5713 5716 5719 5722 5724 5727 5729 5730 5732 5734 5736 5737 5738 5738 5739 5740 5740 5740 5740 5740 5740 5739 5739 5738 5737 5736 5734 5733 5731 5729 5727 5724 5722 5719 5717 5714 5711
5690 5693 5696 5699 5702 5705 5708 5711 5713 5716 5719 5721 5723 5725 5727 5728 5730 5731 5732 5733 5734 5735 5735 5735 5736 5736 5735 5735 5734 5734 5733 5732 5730 5728 5727 5725 5723 5721 5718 5716 5713 5710 5707 5703
5688 5691 5695 5697 5700 5702 5705 5708 5710 5713 5715 5717 5719 5721 5723 5725 5726 5727 5728 5729 5730 5730 5731 5731 5731 5731 5731 5730 5730 5729 5727 5726 5724 5723 5721 5719 5717 5714 5712 5709 5706 5703 5700 5696